Terug naar catalogus

CZ-4 R/B

ActiefSSO
NORAD 20791·ROCKET BODY·🇨🇳 China

Gelanceerd Sep 3, 1990 vanaf Taiyuan Satellite Launch Center

Loading…

Volgende Passages (komende 24 uur)

TLE

VersSource: Space-Track

Epoch: Sep 14, 2026, 09:45 UTC

1 20791U 90081D   26257.40692758 -.00000020  00000-0  17525-4 0  9997
2 20791  99.0431 219.0829 0052588 183.4275 329.0177 13.93059707831012

Volg CZ-4 R/B in realtime met AllMySat

Download on the App Store